Regional Weather Roundup
Issued by NWS Green Bay, WI

Home | Current Version | Previous Version | Graphics & Text | Print | Product List | Glossary Off
Versions: 1 2 3 4 5 6 7 8 9 10 11 12 13 14 15 16 17 18 19 20 21 22 23 24 25 26 27 28 29 30 31 32 33 34 35 36 37 38 39 40 41 42 43 44 45 46 47 48 49 50

000
ASUS43 KGRB 020010
RWRGRB

NORTH-CENTRAL AND NORTHEAST WISCONSIN REGIONAL WEATHER ROUNDUP
NATIONAL WEATHER SERVICE GREEN BAY WI
600 PM CST SUN MAR 01 2015

WIZ005-009-010>012-018-019-020100-
NORTH CENTRAL WISCONSIN

CITY           SKY/WX    TMP DP  RH WIND       PRES   REMARKS
IRONWOOD       PTCLDY    21   3  45 W14       30.06R WCI   8
MANITOWISH WTR PTCLDY    19   3  48 W8        30.05R WCI   9
ARBOR VITAE    CLEAR     22   7  52 W9G17     30.06R
EAGLE RIVER    PTCLDY    15   5  64 W6        30.04S WCI   7
LAND O LAKES   PTCLDY    19   7  59 W5        30.04R
RHINELANDER    CLEAR     17   6  62 W12       30.07S WCI   4
PHILLIPS       PTCLDY    19   3  49 W6        30.10R
ANTIGO         CLEAR     15   8  72 W8        30.09S WCI   4
TOMAHAWK       PTCLDY    19   5  54 W9        30.10R WCI   9
MERRILL        CLEAR     17   7  64 W7        30.11S WCI   8
$$

WIZ013-073-020100-
NORTHEAST WISCONSIN

CITY           SKY/WX    TMP DP  RH WIND       PRES   REMARKS
IRON MOUNTAIN  CLOUDY    21   7  54 W6        30.06R
MARINETTE      PTCLDY    23  10  58 W7G20     30.11R
OCONTO         PTCLDY    21  11  65 W13G21    30.15R WCI   9
$$

WIZ017-030-035>037-045-020100-
CENTRAL WISCONSIN

CITY           SKY/WX    TMP DP  RH WIND       PRES   REMARKS
MEDFORD        CLEAR     19   5  54 W14       30.12R WCI   5
WAUSAU         CLEAR     20   7  57 W14       30.12S WCI   7
MOSINEE        NOT AVBL
MARSHFIELD     CLEAR     20   6  55 W15       30.16R WCI   6
WISC RAPIDS    CLEAR     23   4  44 W14       30.19R
STEVENS POINT  CLEAR     19   8  61 W6        30.16R
WAUPACA        CLEAR     22  12  66 SW7       30.18S
SHAWANO        PTCLDY    22  10  60 W7        30.15F
CLINTONVILLE   PTCLDY    21  10  63 W10       30.16S
$$

WIZ038-039-048-051-020100-
FOX VALLEY

CITY           SKY/WX    TMP DP  RH WIND       PRES   REMARKS
NWS GREEN BAY  MOCLDY    23  14  68 W16       30.16R WCI  10
APPLETON       PTCLDY    21  10  63 W17       30.17R WCI   7
OSHKOSH        PTCLDY    24  12  60 W12       30.18R
FOND DU LAC    MOCLDY    26  14  60 W13       30.18R
$$

WIZ022-050-052-020100-
EAST CENTRAL WISCONSIN

CITY           SKY/WX    TMP DP  RH WIND       PRES   REMARKS
STURGEON BAY   PTCLDY    23  12  63 W13       30.14R
MANITOWOC      FLURRIES  27  18  69 W13       30.15S
SHEBOYGAN      CLOUDY    25  16  68 SW12      30.17S
$$

LMZ563-521-522-541>543-020100-
LAKESHORE

STATION/POSITION TIME  TEMP    WIND        PRES    VSBY  WAVE
                       AIR SEA DIR/SP/G                  HT/PER
                 (UTC) (F)     (DEG/KT/KT) (MB)    (MI)  (FT/S)
SHEBOYGAN LKSHOR 0000   27     230/  9/ 12 1023.2R
KEWAUNEE LKSHORE 0000   26     240/  7/ 12 1019.5S
NORTHPORT PIER   0000   25     240/  7/ 16 1019.3R
SISTER BAY LKSHO 2300   26     210/ 17/ 21   N/A
CHAMBERS ISLAND  0000   24     220/  9/ 16 1019.6S
MENOMINEE LKSHOR 0000   24     270/ 14     1020.6R
$$



USA.gov is the U.S. government's official web portal to all federal, state and local government web resources and services.